Corpus Christi, TX

5:12 PM CDT on March 23, 2017 (GMT -0500)
Corpus Christi International

Weather History for KCRP - March, 2012

Change the Weather History Date:

Friday, March 23, 2012

  Actual Average Record
Temperature  
Mean Temperature 69 °F 68 °F  
Max Temperature 82 °F 77 °F 95 °F (1980)
Min Temperature 55 °F 58 °F 39 °F (1968)
Degree Days  
Heating Degree Days 0 2  
Month to date heating degree days 23 69  
Since 1 July heating degree days 611 869  
Cooling Degree Days 4 4  
Month to date cooling degree days 164 76  
Year to date cooling degree days 309 152  
Growing Degree Days 18 (Base 50)    
Moisture  
Dew Point 61 °F    
Average Humidity 77    
Maximum Humidity 100    
Minimum Humidity 54    
Precipitation  
Precipitation 0.00 in 0.06 in 1.04 in (1891)
Month to date precipitation 0.90 1.43  
Year to date precipitation 5.44 4.90  
Snow  
Snow 0.00 in - - ()
Month to date snowfall 0.0  
Since 1 July snowfall 0.0  
Snow Depth 0.00 in    
Sea Level Pressure  
Sea Level Pressure 29.97 in    
Wind  
Wind Speed 8 mph (ESE)    
Max Wind Speed 15 mph    
Max Gust Speed -    
Visibility 6 miles    
Events Fog    
T = Trace of Precipitation, MM = Missing Value Source: NWS Daily Summary

Daily Weather History Graph

Daily Weather History Graph

Search for Another Location

Airport or City:

Trip Planner

Search our weather history database for the weather conditions in past years. The results will help you decide how hot, cold, wet, or windy it might be!

Date:

Astronomy

Mar. 23, 2012 Rise Set
Actual Time 7:29 AM CDT 7:43 PM CDT
Civil Twilight 7:06 AM CDT 8:06 PM CDT
Nautical Twilight 6:39 AM CDT 8:33 PM CDT
Astronomical Twilight 6:11 AM CDT 9:01 PM CDT
Moon 7:48 AM CDT 8:54 PM CDT
Length of Visible Light 13h 00m
Length of Day
12h 13m
New Moon, 1% of the Moon is Illuminated
Mar 23
New Moon
Mar 30
First Quarter
Apr 6
Full
Apr 13
Last Quarter
Apr 21
New

Hourly Weather History & Observations

Time (CDT) Temp. Heat Index Dew Point Humidity Pressure Visibility Wind Dir Wind Speed Gust Speed Precip Events Conditions
12:51 AM 64.0 °F - 60.1 °F 87% 29.95 in 10.0 mi SSE 6.9 mph - N/A   Clear
1:51 AM 63.0 °F - 60.1 °F 90% 29.94 in 10.0 mi SSE 9.2 mph - N/A   Clear
2:51 AM 61.0 °F - 59.0 °F 93% 29.94 in 10.0 mi SSE 8.1 mph - N/A   Clear
3:51 AM 60.1 °F - 57.9 °F 93% 29.93 in 10.0 mi SSE 8.1 mph - N/A   Clear
4:51 AM 57.9 °F - 57.0 °F 97% 29.93 in 10.0 mi South 5.8 mph - N/A Fog Patches of Fog
5:00 AM 57.2 °F - 57.2 °F 100% 29.93 in 5.0 mi SSW 4.6 mph - N/A Fog Partly Cloudy
5:10 AM 55.4 °F - 55.4 °F 100% 29.93 in 0.5 mi WSW 5.8 mph - N/A   Mostly Cloudy
5:36 AM 57.2 °F - 55.4 °F 94% 29.94 in 1.5 mi WSW 5.8 mph - N/A   Scattered Clouds
5:39 AM 57.2 °F - 55.4 °F 94% 29.94 in 3.0 mi WSW 4.6 mph - N/A   Partly Cloudy
5:51 AM 57.0 °F - 55.9 °F 96% 29.94 in 5.0 mi SW 4.6 mph - N/A   Partly Cloudy
6:14 AM 55.4 °F - 55.4 °F 100% 29.95 in 0.8 mi SW 4.6 mph - N/A   Mostly Cloudy
6:22 AM 55.4 °F - 55.4 °F 100% 29.95 in 0.2 mi WSW 3.5 mph - N/A Fog Fog
6:51 AM 55.9 °F - 55.0 °F 97% 29.96 in 0.2 mi WNW 3.5 mph - N/A Fog Fog
7:51 AM 57.9 °F - 56.3 °F 94% 29.99 in 0.2 mi NNW 3.5 mph - N/A Fog Fog
8:23 AM 60.8 °F - 59.0 °F 94% 30.00 in 0.2 mi North 4.6 mph - N/A Fog Fog
8:51 AM 61.0 °F - 60.1 °F 97% 30.01 in 0.2 mi North 9.2 mph - N/A Fog Fog
9:43 AM 64.4 °F - 62.6 °F 94% 30.03 in 0.5 mi North 10.4 mph - N/A Fog Fog
9:51 AM 64.0 °F - 63.0 °F 96% 30.03 in 0.5 mi North 11.5 mph - N/A Fog Fog
10:00 AM 64.4 °F - 62.6 °F 94% 30.03 in 1.5 mi North 11.5 mph - N/A   Mostly Cloudy
10:02 AM 64.4 °F - 62.6 °F 94% 30.03 in 2.0 mi North 10.4 mph - N/A   Mostly Cloudy
10:05 AM 64.4 °F - 62.6 °F 94% 30.03 in 3.0 mi NNE 10.4 mph - N/A   Mostly Cloudy
10:27 AM 69.8 °F - 64.4 °F 83% 30.03 in 8.0 mi North 6.9 mph - N/A   Scattered Clouds
10:51 AM 72.0 °F - 63.0 °F 73% 30.03 in 8.0 mi North 5.8 mph - N/A   Scattered Clouds
11:51 AM 75.9 °F - 62.1 °F 62% 30.01 in 10.0 mi Variable 4.6 mph - N/A   Partly Cloudy
12:51 PM 78.1 °F - 62.1 °F 58% 30.00 in 10.0 mi Variable 3.5 mph - N/A   Partly Cloudy
1:51 PM 81.0 °F 82.2 °F 63.0 °F 54% 29.99 in 10.0 mi East 6.9 mph - N/A   Scattered Clouds
2:51 PM 80.1 °F 81.5 °F 63.0 °F 56% 29.97 in 10.0 mi East 10.4 mph - N/A   Scattered Clouds
3:51 PM 80.1 °F 81.7 °F 64.0 °F 58% 29.95 in 10.0 mi East 11.5 mph - N/A   Scattered Clouds
4:51 PM 81.0 °F 81.9 °F 62.1 °F 52% 29.94 in 10.0 mi East 12.7 mph - N/A   Partly Cloudy
5:51 PM 79.0 °F - 64.0 °F 60% 29.93 in 10.0 mi ESE 12.7 mph - N/A   Clear
6:51 PM 77.0 °F - 63.0 °F 62% 29.92 in 10.0 mi ESE 11.5 mph - N/A   Clear
7:51 PM 73.0 °F - 64.0 °F 73% 29.93 in 10.0 mi ESE 9.2 mph - N/A   Clear
8:51 PM 70.0 °F - 64.9 °F 84% 29.94 in 10.0 mi ESE 8.1 mph - N/A   Partly Cloudy
9:27 PM 69.8 °F - 64.4 °F 83% 29.95 in 10.0 mi SE 8.1 mph - N/A   Partly Cloudy
9:51 PM 69.1 °F - 64.9 °F 87% 29.96 in 10.0 mi SE 6.9 mph - N/A   Partly Cloudy
10:25 PM 69.8 °F - 64.4 °F 83% 29.98 in 10.0 mi ESE 6.9 mph - N/A   Mostly Cloudy
10:51 PM 70.0 °F - 64.9 °F 84% 29.98 in 10.0 mi SE 12.7 mph - N/A   Mostly Cloudy
11:11 PM 69.8 °F - 66.2 °F 88% 29.98 in 10.0 mi SE 11.5 mph - N/A   Mostly Cloudy
11:33 PM 69.8 °F - 64.4 °F 83% 29.98 in 10.0 mi SE 8.1 mph - N/A   Partly Cloudy
11:51 PM 68.0 °F - 64.9 °F 90% 29.98 in 10.0 mi SE 8.1 mph - N/A   Partly Cloudy